Flag for Germany Weather past 2 weeks in Rheda-Wiedenbrück, North Rhine-Westphalia, Germany

Now
34 °F

Light rain. Partly cloudy.


Feels Like: 25 °F
Forecast: 35 / 44 °F
Wind: 13 mph from West

Location: Paderborn / Lippstadt

Current Time: Apr 1, 2015 at 11:41:09 PM

Latest Report: Apr 1, 2015 at 10:50 PM


Visibility: N/A

Pressure: 29.98 "Hg

Humidity: 93%

Dew point: 32 °F

Location of Rheda-WiedenbrückLocation

Historic Weather in Rheda-Wiedenbrück — Graph

°F

Rheda-Wiedenbrück temperature yesterday

Maximum temperature yesterday: 50 °F (at 6:50 AM)
Minimum temperature yesterday: 36 °F (at 2:20 AM)
Average temperature yesterday: 43 °F

Past Weeks' High & Low Weather Summary

 TemperatureHumidityPressure
High59 °F (Mar 18, 2:50 PM)100% (Mar 18, 2:50 AM)30.36 "Hg (Mar 18, 2:50 AM)
Low28 °F (Mar 23, 2:50 AM)41% (Mar 25, 11:50 AM)29.15 "Hg (Mar 31, 7:20 AM)
Average41 °F80%29.91 "Hg
* Reported Mar 17 9:20 PM — Apr 1 10:20 PM, Rheda-Wiedenbrück, Weather by CustomWeather, © 2015

Note: Actual official high and low records may vary slightly from our data, if they occured in-between our weather recording intervals... More about our weather records

Advertising

Rheda-Wiedenbrück weather history for previous 24 hours

 ConditionsComfort  
Time TempWeatherWind HumidityBarometerVisibility
10:20 PM
Wed, Apr 1
34 °FLight rain. Partly cloudy.10 mph93%29.98 "HgN/A
9:50 PM36 °FLight rain. Passing clouds.10 mph81%30.01 "HgN/A
9:20 PM34 °FPassing clouds.7 mph93%30.01 "HgN/A
8:50 PM34 °FPartly sunny.7 mph93%30.01 "HgN/A
8:20 PM36 °FThunderstorms. Partly sunny.7 mph87%30.01 "Hg4 mi
7:50 PM36 °FScattered showers. Partly sunny.15 mph81%30.01 "HgN/A
7:20 PM36 °FScattered showers. Broken clouds.12 mph81%30.01 "HgN/A
6:50 PM34 °FSprinkles. Partly sunny.12 mph93%29.98 "Hg4 mi
6:20 PM34 °FSnow flurries. Partly sunny.16 mph93%29.98 "HgN/A
5:50 PM32 °FThunderstorms. Partly sunny.13 mph93%29.98 "Hg2 mi
5:20 PM34 °FSprinkles. Scattered clouds.10 mph93%29.98 "Hg4 mi
4:50 PM32 °FSnow showers. Broken clouds.15 mph93%29.98 "Hg3 mi
4:20 PM32 °FSnow showers. Partly sunny.9 mph93%29.98 "Hg1 mi
3:50 PM32 °FThunderstorms. Broken clouds.10 mph93%29.98 "Hg3 mi
3:20 PM32 °FThunderstorms. Broken clouds.15 mph93%29.98 "Hg1 mi
2:50 PM37 °FSprinkles. Broken clouds.15 mph81%29.98 "HgN/A
2:20 PM36 °FSprinkles. Scattered clouds.12 mph87%29.95 "HgN/A
1:50 PM34 °FThunderstorms. Scattered clouds.13 mph87%29.98 "HgN/A
1:20 PM39 °FRain showers. Scattered clouds.14 mph70%29.95 "Hg4 mi
12:50 PM39 °FSprinkles. Scattered clouds.16 mph70%29.95 "HgN/A
12:20 PM39 °FScattered showers. Broken clouds.14 mph70%29.95 "HgN/A
11:50 AM39 °FBroken clouds.15 mph75%29.95 "HgN/A
11:20 AM37 °FSprinkles. Broken clouds.13 mph93%29.95 "Hg4 mi
10:50 AM36 °FBroken clouds.16 mph93%29.92 "HgN/A
10:20 AM34 °FBroken clouds.12 mph100%29.92 "Hg5 mi
9:50 AM34 °FFog.12 mph93%29.92 "Hg3 mi
9:20 AM32 °FSnow. Ice fog.13 mph100%29.89 "Hg2 mi
8:50 AM32 °FSnow. Broken clouds.12 mph100%29.86 "Hg2 mi
8:20 AM32 °FBroken clouds.12 mph100%29.86 "Hg5 mi
7:50 AM34 °FPartly cloudy.14 mph93%29.83 "HgN/A
7:20 AM32 °FPartly cloudy.12 mph100%29.83 "HgN/A
6:50 AM32 °FThunderstorms. Ice fog.15 mph93%29.83 "Hg2 mi
6:20 AM32 °FThunderstorms. Partly cloudy.12 mph93%29.80 "HgN/A
5:56 AM30 °FThunderstorms. Low clouds.13 mph100%29.80 "Hg1 mi
5:20 AM34 °FHeavy snow. Fog.18 mph81%29.77 "Hg1 mi
4:50 AM36 °FLight rain. Passing clouds.16 mph75%29.77 "HgN/A
4:20 AM37 °FLight rain. Passing clouds.16 mph65%29.77 "HgN/A
3:50 AM37 °FLight rain. Passing clouds.15 mph70%29.74 "HgN/A
3:20 AM37 °FPassing clouds.15 mph70%29.74 "HgN/A
2:50 AM37 °FPassing clouds.17 mph70%29.74 "HgN/A
2:20 AM37 °FPassing clouds.13 mph70%29.74 "HgN/A
1:50 AM37 °FThundershowers. Passing clouds.16 mph70%29.71 "HgN/A
1:20 AM37 °FPassing clouds.17 mph70%29.71 "HgN/A
12:50 AM37 °FPassing clouds.15 mph70%29.71 "HgN/A
12:20 AM37 °FThundershowers. Passing clouds.14 mph75%29.68 "HgN/A
11:50 PM
Tue, Mar 31
37 °FThundershowers. Passing clouds.16 mph75%29.68 "HgN/A
11:20 PM37 °FPassing clouds.17 mph75%29.68 "HgN/A
Weather by CustomWeather, © 2015

See weather overviewHow to use our weather pages